Voltar ao catálogo

SCOUT G-1 DEB

AtivoPO
NORAD 21691·DEBRIS·🇺🇸 United States

Lançado Jun 29, 1991 de Vandenberg Space Force Base

Loading…

Próximas Passagens (próximas 24 horas)

TLE

AtualizadoSource: Space-Track

Época: Sep 14, 2026, 10:47 UTC

1 21691U 91045E   26257.44988723  .00000947  00000-0  21300-3 0  9994
2 21691  89.8047 252.3504 0013374 184.8332 327.5977 14.55800368853696

Acompanhe SCOUT G-1 DEB em tempo real com AllMySat

Download on the App Store